Le nostre stazioni meteo in Italia

Pubblicità
Il mio iltempo24.it
Caserta, Italia (16288): Temperatura & dewpoint: 16.01.2020 01:00:00 - 22.01.2020 01:00:00 (CET)Caserta, Italia (16288): velocità del vento: 16.01.2020 01:00:00 - 22.01.2020 01:00:00 (CET)Caserta, Italia (16288): direzione del vento: 16.01.2020 01:00:00 - 22.01.2020 01:00:00 (CET)Caserta, Italia (16288): reduced air pressure: 16.01.2020 01:00:00 - 22.01.2020 01:00:00 (CET)
Data & Tempo tt [°C] td [°C] ff [km/h] ff [kn] dd ppp [hPa]
22.01.2020 01:00:00 - - - - - -
22.01.2020 00:00:00 8,5 2,2 4 2 NNE 1037,2
21.01.2020 23:00:00 - - - - - -
21.01.2020 22:00:00 9,4 2,2 2 1 ENE 1037,5
21.01.2020 21:00:00 - - - - - -
21.01.2020 20:00:00 - - - - - -
21.01.2020 19:00:00 10,4 2,4 4 2 ENE 1037,4
21.01.2020 18:00:00 10,9 2,4 8 4 E 1037,3
21.01.2020 17:00:00 11,5 2,4 9 5 E 1037,4
21.01.2020 16:00:00 12,7 2,7 13 7 ESE 1037,4
21.01.2020 15:00:00 13,7 3,4 11 6 ESE 1037,6
21.01.2020 14:00:00 13,3 2,7 9 5 E 1037,9
21.01.2020 13:00:00 12,9 2,9 8 4 E 1038,8
21.01.2020 12:00:00 11,9 2,3 9 5 SE 1039,3
21.01.2020 11:00:00 10,9 2,1 8 4 ENE 1039,9
21.01.2020 10:00:00 10,6 1,8 11 6 E 1039,7
21.01.2020 09:00:00 9,7 1,5 11 6 SSO 1039,3
21.01.2020 08:00:00 9,0 1,1 11 6 E 1039,0
21.01.2020 07:00:00 9,0 0,8 13 7 ENE 1038,9
21.01.2020 06:00:00 8,7 1,0 8 4 SO 1038,6
21.01.2020 05:00:00 9,1 1,4 9 5 SSO 1038,6
21.01.2020 04:00:00 9,1 1,4 9 5 E 1038,8
21.01.2020 03:00:00 9,2 1,3 9 5 E 1038,9
21.01.2020 02:00:00 9,4 1,5 9 5 ENE 1039,0
21.01.2020 01:00:00 9,3 1,1 11 6 ENE 1039,0
21.01.2020 00:00:00 9,4 1,0 5 3 ENE 1039,4
20.01.2020 23:00:00 9,7 1,5 11 6 E 1038,9
20.01.2020 22:00:00 9,7 1,3 9 5 E 1038,5
20.01.2020 21:00:00 9,5 0,8 5 3 E 1038,2
20.01.2020 20:00:00 9,8 0,3 4 2 NNE 1037,7
20.01.2020 19:00:00 10,1 0,6 9 5 ENE 1037,1
20.01.2020 18:00:00 10,3 1,0 11 6 SSE 1036,2
20.01.2020 17:00:00 10,3 1,0 11 6 E 1035,5
20.01.2020 16:00:00 10,4 1,7 13 7 E 1035,6
20.01.2020 15:00:00 10,5 1,5 13 7 E 1035,7
20.01.2020 14:00:00 10,8 1,5 13 7 E 1035,3
20.01.2020 13:00:00 10,7 1,1 15 8 ESE 1035,4
20.01.2020 12:00:00 10,7 0,9 13 7 E 1035,0
20.01.2020 11:00:00 10,1 -0,2 13 7 E 1035,3
20.01.2020 10:00:00 10,0 -0,3 9 5 E 1034,5
20.01.2020 09:00:00 9,7 -0,6 13 7 E 1033,8
20.01.2020 08:00:00 9,4 -0,3 13 7 E 1033,1
20.01.2020 07:00:00 9,3 0,6 9 5 ESE 1032,5
20.01.2020 06:00:00 9,4 0,5 9 5 ESE 1031,9
20.01.2020 05:00:00 9,3 0,6 9 5 E 1030,9
20.01.2020 04:00:00 9,3 1,1 9 5 E 1031,0
20.01.2020 03:00:00 9,4 0,7 9 5 E 1030,7
20.01.2020 02:00:00 9,6 0,6 11 6 ESE 1029,9
20.01.2020 01:00:00 9,6 -0,1 11 6 S 1029,5
20.01.2020 00:00:00 9,7 1,0 9 5 E 1029,3
19.01.2020 23:00:00 10,1 0,0 9 5 E 1028,8
19.01.2020 22:00:00 10,0 0,2 11 6 E 1028,2
19.01.2020 21:00:00 - - - - - -
19.01.2020 20:00:00 - - - - - -
19.01.2020 19:00:00 10,5 1,2 5 3 SSO 1027,2
19.01.2020 18:00:00 - - - - - -
19.01.2020 17:00:00 11,3 2,0 8 4 E 1024,6
19.01.2020 16:00:00 12,0 2,6 8 4 E 1024,0
19.01.2020 15:00:00 12,9 3,7 9 5 NO 1023,4
19.01.2020 14:00:00 13,4 4,5 9 5 SSE 1022,8
19.01.2020 13:00:00 12,7 3,8 5 3 SE 1023,1
19.01.2020 12:00:00 11,7 4,6 9 5 ESE 1023,5
19.01.2020 11:00:00 10,6 4,9 8 4 E 1023,8
19.01.2020 10:00:00 7,9 6,7 4 2 E 1023,5
19.01.2020 09:00:00 5,9 5,9 2 1 NE 1022,8
19.01.2020 08:00:00 5,3 4,6 5 3 NE 1022,5
19.01.2020 07:00:00 6,2 6,2 5 3 NE 1022,3
19.01.2020 06:00:00 4,9 4,9 4 2 ENE 1021,9
19.01.2020 05:00:00 5,2 5,2 4 2 NNE 1021,7
19.01.2020 04:00:00 5,5 5,5 4 2 NE 1021,8
19.01.2020 03:00:00 5,3 4,4 2 1 NE 1021,9
19.01.2020 02:00:00 5,7 4,5 0 0 N 1021,9
19.01.2020 01:00:00 6,3 5,2 2 1 ENE 1021,6
19.01.2020 00:00:00 6,6 5,2 2 1 NE 1021,8
18.01.2020 23:00:00 7,4 5,8 4 2 NNE 1021,7
18.01.2020 22:00:00 7,9 6,0 2 1 N 1021,9
18.01.2020 21:00:00 8,6 6,7 4 2 NNE 1021,7
18.01.2020 20:00:00 9,1 7,2 2 1 NE 1021,7
18.01.2020 19:00:00 9,2 7,0 2 1 ENE 1021,8
18.01.2020 18:00:00 9,6 6,5 0 0 N 1021,4
18.01.2020 17:00:00 11,0 7,3 2 1 SSE 1021,3
18.01.2020 16:00:00 11,5 7,2 5 3 SSE 1021,3
18.01.2020 15:00:00 11,6 7,3 4 2 SSE 1021,7
18.01.2020 14:00:00 11,8 7,7 5 3 S 1022,1
18.01.2020 13:00:00 10,2 7,4 4 2 S 1022,9
18.01.2020 12:00:00 8,9 8,9 4 2 S 1024,1
18.01.2020 11:00:00 8,2 8,2 4 2 SO 1025,0
18.01.2020 10:00:00 7,3 7,3 5 3 E 1024,9
18.01.2020 09:00:00 6,8 6,2 15 8 NO 1025,7
18.01.2020 08:00:00 6,6 4,6 5 3 NE 1024,9
18.01.2020 07:00:00 6,2 3,8 5 3 NE 1024,8
18.01.2020 06:00:00 5,5 2,8 2 1 NNE 1024,8
18.01.2020 05:00:00 6,4 3,2 4 2 NE 1024,9
18.01.2020 04:00:00 6,9 3,8 5 3 NE 1025,8
18.01.2020 03:00:00 6,2 3,7 5 3 NE 1026,5
18.01.2020 02:00:00 5,7 4,0 5 3 NE 1026,6
18.01.2020 01:00:00 5,6 3,9 4 2 NE 1026,6
18.01.2020 00:00:00 5,4 4,3 4 2 NE 1027,1
17.01.2020 23:00:00 - - - - - -
17.01.2020 22:00:00 5,0 2,8 2 1 NE 1027,6
17.01.2020 21:00:00 - - - - - -
17.01.2020 20:00:00 - - - - - -
17.01.2020 19:00:00 7,1 2,3 0 0 N 1027,2
17.01.2020 18:00:00 8,9 3,0 0 0 N 1026,7
17.01.2020 17:00:00 11,4 4,3 4 2 O 1026,3
17.01.2020 16:00:00 12,4 4,0 4 2 O 1026,1
17.01.2020 15:00:00 13,0 4,1 4 2 ONO 1026,4
17.01.2020 14:00:00 12,5 3,4 4 2 NO 1026,7
17.01.2020 13:00:00 11,9 3,6 4 2 ONO 1027,3
17.01.2020 12:00:00 11,0 4,4 4 2 O 1028,0
17.01.2020 11:00:00 9,9 3,3 5 3 N 1028,3
17.01.2020 10:00:00 8,3 2,9 5 3 NE 1028,5
17.01.2020 09:00:00 6,7 2,1 5 3 NE 1028,5
17.01.2020 08:00:00 6,0 1,5 8 4 NNE 1028,4
17.01.2020 07:00:00 5,9 1,4 5 3 NNE 1028,3
17.01.2020 06:00:00 6,1 1,6 5 3 NNE 1028,2
17.01.2020 05:00:00 6,3 1,6 8 4 NNE 1028,2
17.01.2020 04:00:00 6,6 1,5 5 3 NNE 1028,3
17.01.2020 03:00:00 6,9 1,7 5 3 NNE 1028,7
17.01.2020 02:00:00 6,8 1,4 5 3 NE 1028,6
17.01.2020 01:00:00 7,7 2,1 5 3 NE 1028,7
17.01.2020 00:00:00 6,9 2,3 4 2 NE 1029,0
16.01.2020 23:00:00 5,9 1,9 4 2 NE 1029,2
16.01.2020 22:00:00 5,7 1,7 2 1 ENE 1029,3
16.01.2020 21:00:00 - - - - - -
16.01.2020 20:00:00 - - - - - -
16.01.2020 19:00:00 7,9 1,6 0 0 N 1029,1
16.01.2020 18:00:00 10,7 2,9 4 2 NNO 1028,7
16.01.2020 17:00:00 12,5 2,5 2 1 NNE 1028,2
16.01.2020 16:00:00 14,1 2,6 5 3 ENE 1028,3
16.01.2020 15:00:00 14,6 3,0 4 2 ENE 1028,5
16.01.2020 14:00:00 13,9 3,3 4 2 E 1029,0
16.01.2020 13:00:00 12,8 3,1 5 3 N 1029,6
16.01.2020 12:00:00 11,8 3,5 5 3 NNE 1030,5
16.01.2020 11:00:00 9,9 2,6 8 4 N 1031,2
16.01.2020 10:00:00 8,0 1,7 8 4 NNE 1031,4
16.01.2020 09:00:00 6,2 1,5 8 4 NNE 1031,1
16.01.2020 08:00:00 5,2 0,7 9 5 NNE 1031,0
16.01.2020 07:00:00 5,6 0,9 5 3 NNE 1030,8
16.01.2020 06:00:00 6,0 1,5 5 3 NNE 1030,6
16.01.2020 05:00:00 4,9 1,2 4 2 NNE 1030,6
16.01.2020 04:00:00 5,0 1,3 4 2 NE 1030,9
16.01.2020 03:00:00 5,2 1,3 4 2 NE 1031,0
16.01.2020 02:00:00 5,9 1,9 4 2 NNE 1030,7
16.01.2020 01:00:00 6,0 2,8 5 3 NE 1030,7

tt = Temperatura
td = dewpoint
ff = velocità del vento
dd = direzione del vento
ppp = reduced air pressure

Stazioni seguenti

WeatherPro
AMSI
MeteoEarth